User: anonymous   Login
Location: Ostrava
(49.8330°N, 18.2830°E)
Time: 04:05:38
(UTC+01:00)
Language:

Lacrosse 5 - Orbit

View from above orbital plane
View from above orbital plane
View from above satellite
View from above satellite

Ground track
Ground track

The orbit data is extracted from the following two-line orbital elements,

1 28646U 05016A   18048.73728204 0.00000000  00000-0  00000-0 0    05
2 28646  57.0110 290.1609 0007000 156.7131 203.2868 14.51909232    05
Epoch (UTC): 17 February 2018 17:41:41
Eccentricity: 0.0007000
inclination: 57.0110°
perigee height: 714 km
apogee height: 724 km
right ascension of ascending node: 290.1609°
argument of perigee: 156.7131°
revolutions per day: 14.51909232
mean anomaly at epoch: 203.2868°
orbit number at epoch: 0

The dashed part of the orbit path shows where the satellite is in the earth's shadow,  

DLR